contact:dominique.lefevre@mio.osupytheas.fr, maurice.libes@osupytheas.fr, didier.mallarino@osupytheas.fr
Project:EMSO http://www.emso-fr.org/EMSO-France
Depth: 2436.0 m
Title:EMSO Ligure Ouest : Data MII capteur OXYGEN
DateTime,Latitude,Longitude,Optode-Type,Optode_Serial,Oxygen,Saturation_Oxygen,Temperature
DateTime,Latitude,Longitude,Optode-Type,Optode_Serial,µmol.l-1,%,degC
2019-07-23T00:02:41,42.805,6.029,4330,1995,192.729,58.943,13.291
2019-07-23T00:05:41,42.805,6.029,4330,1995,192.662,58.925,13.293
2019-07-23T00:08:41,42.805,6.029,4330,1995,192.728,58.942,13.291
2019-07-23T00:11:41,42.805,6.029,4330,1995,192.678,58.928,13.291
2019-07-23T00:14:41,42.805,6.029,4330,1995,192.666,58.924,13.291
2019-07-23T00:17:41,42.805,6.029,4330,1995,192.698,58.932,13.290
2019-07-23T00:20:41,42.805,6.029,4330,1995,192.753,58.951,13.291
2019-07-23T00:23:41,42.805,6.029,4330,1995,192.705,58.936,13.291
2019-07-23T00:32:41,42.805,6.029,4330,1995,192.717,58.936,13.288
2019-07-23T00:35:41,42.805,6.029,4330,1995,192.656,58.918,13.289
2019-07-23T00:38:41,42.805,6.029,4330,1995,192.669,58.924,13.290
2019-07-23T00:41:41,42.805,6.029,4330,1995,192.653,58.919,13.290
2019-07-23T00:44:41,42.805,6.029,4330,1995,192.771,58.956,13.291
2019-07-23T00:47:41,42.805,6.029,4330,1995,192.682,58.928,13.291
2019-07-23T00:50:41,42.805,6.029,4330,1995,192.692,58.933,13.292
2019-07-23T00:53:41,42.805,6.029,4330,1995,192.623,58.910,13.290
2019-07-23T00:56:41,42.805,6.029,4330,1995,192.605,58.906,13.291
2019-07-23T00:59:41,42.805,6.029,4330,1995,192.642,58.919,13.293
2019-07-23T01:02:41,42.805,6.029,4330,1995,192.606,58.906,13.291
2019-07-23T01:05:41,42.805,6.029,4330,1995,192.668,58.923,13.290
2019-07-23T01:08:41,42.805,6.029,4330,1995,192.630,58.913,13.291
2019-07-23T01:11:41,42.805,6.029,4330,1995,192.557,58.892,13.292
2019-07-23T01:14:41,42.805,6.029,4330,1995,192.611,58.908,13.292
2019-07-23T01:17:41,42.805,6.029,4330,1995,192.610,58.908,13.292
2019-07-23T01:20:41,42.805,6.029,4330,1995,192.638,58.916,13.292
2019-07-23T01:23:41,42.805,6.029,4330,1995,192.632,58.915,13.292
2019-07-23T01:26:41,42.805,6.029,4330,1995,192.570,58.896,13.292
2019-07-23T01:29:41,42.805,6.029,4330,1995,192.595,58.903,13.292
2019-07-23T01:32:41,42.805,6.029,4330,1995,192.603,58.905,13.291
2019-07-23T01:35:41,42.805,6.029,4330,1995,192.559,58.893,13.293
2019-07-23T01:38:41,42.805,6.029,4330,1995,192.551,58.889,13.291
2019-07-23T01:41:41,42.805,6.029,4330,1995,192.513,58.877,13.291
2019-07-23T01:44:41,42.805,6.029,4330,1995,192.529,58.881,13.290
2019-07-23T01:47:41,42.805,6.029,4330,1995,192.576,58.896,13.291
2019-07-23T01:50:41,42.805,6.029,4330,1995,192.497,58.872,13.291
2019-07-23T01:53:41,42.805,6.029,4330,1995,192.496,58.871,13.291
2019-07-23T01:56:41,42.805,6.029,4330,1995,192.519,58.879,13.291
2019-07-23T01:59:41,42.805,6.029,4330,1995,192.538,58.883,13.289
2019-07-23T02:02:41,42.805,6.029,4330,1995,192.521,58.878,13.290
2019-07-23T02:05:41,42.805,6.029,4330,1995,192.514,58.876,13.290
2019-07-23T02:08:41,42.805,6.029,4330,1995,192.488,58.868,13.290
2019-07-23T02:11:41,42.805,6.029,4330,1995,192.517,58.877,13.290
2019-07-23T02:14:41,42.805,6.029,4330,1995,192.478,58.865,13.290
2019-07-23T02:17:41,42.805,6.029,4330,1995,192.511,58.874,13.289
2019-07-23T02:20:41,42.805,6.029,4330,1995,192.530,58.880,13.290
2019-07-23T02:23:40,42.805,6.029,4330,1995,192.510,58.874,13.289
2019-07-23T02:26:40,42.805,6.029,4330,1995,192.554,58.887,13.289
2019-07-23T02:29:40,42.805,6.029,4330,1995,192.545,58.884,13.289
2019-07-23T02:32:41,42.805,6.029,4330,1995,192.444,58.855,13.291
2019-07-23T02:35:41,42.805,6.029,4330,1995,192.459,58.860,13.291
2019-07-23T02:38:41,42.805,6.029,4330,1995,192.463,58.860,13.289
2019-07-23T02:41:41,42.805,6.029,4330,1995,192.464,58.862,13.291
2019-07-23T02:44:41,42.805,6.029,4330,1995,192.471,58.864,13.291
2019-07-23T02:47:41,42.805,6.029,4330,1995,192.428,58.850,13.291
2019-07-23T02:50:41,42.805,6.029,4330,1995,192.476,58.865,13.291
2019-07-23T02:53:41,42.805,6.029,4330,1995,192.462,58.860,13.290
2019-07-23T02:56:40,42.805,6.029,4330,1995,192.488,58.870,13.291
2019-07-23T02:59:40,42.805,6.029,4330,1995,192.452,58.858,13.291
2019-07-23T03:05:40,42.805,6.029,4330,1995,192.460,58.859,13.289
2019-07-23T03:08:40,42.805,6.029,4330,1995,192.434,58.850,13.289
2019-07-23T03:11:40,42.805,6.029,4330,1995,192.438,58.852,13.289
2019-07-23T03:14:40,42.805,6.029,4330,1995,192.435,58.852,13.290
2019-07-23T03:17:40,42.805,6.029,4330,1995,192.426,58.849,13.290
2019-07-23T03:20:40,42.805,6.029,4330,1995,192.417,58.846,13.289
2019-07-23T03:23:40,42.805,6.029,4330,1995,192.434,58.850,13.289
2019-07-23T03:26:40,42.805,6.029,4330,1995,192.462,58.860,13.290
2019-07-23T03:29:40,42.805,6.029,4330,1995,192.372,58.834,13.291
2019-07-23T03:32:40,42.805,6.029,4330,1995,192.434,58.852,13.291
2019-07-23T03:35:40,42.805,6.029,4330,1995,192.403,58.842,13.290
2019-07-23T03:38:40,42.805,6.029,4330,1995,192.435,58.852,13.290
2019-07-23T03:41:40,42.805,6.029,4330,1995,192.457,58.859,13.291
2019-07-23T03:44:40,42.805,6.029,4330,1995,192.425,58.850,13.291
2019-07-23T03:47:40,42.805,6.029,4330,1995,192.381,58.836,13.290
2019-07-23T03:50:40,42.805,6.029,4330,1995,192.435,58.851,13.290
2019-07-23T03:53:40,42.805,6.029,4330,1995,192.400,58.842,13.291
2019-07-23T03:56:40,42.805,6.029,4330,1995,192.392,58.840,13.291
2019-07-23T03:59:40,42.805,6.029,4330,1995,192.335,58.823,13.291
2019-07-23T04:02:40,42.805,6.029,4330,1995,192.379,58.835,13.290
2019-07-23T04:05:40,42.805,6.029,4330,1995,192.326,58.819,13.291
2019-07-23T04:08:40,42.805,6.029,4330,1995,192.372,58.835,13.292
2019-07-23T04:11:40,42.805,6.029,4330,1995,192.379,58.836,13.291
2019-07-23T04:14:40,42.805,6.029,4330,1995,192.352,58.829,13.292
2019-07-23T04:17:40,42.805,6.029,4330,1995,192.407,58.845,13.291
2019-07-23T04:20:40,42.805,6.029,4330,1995,192.369,58.834,13.292
2019-07-23T04:23:40,42.805,6.029,4330,1995,192.356,58.829,13.291
2019-07-23T04:26:40,42.805,6.029,4330,1995,192.303,58.816,13.294
2019-07-23T04:29:40,42.805,6.029,4330,1995,192.276,58.806,13.292
2019-07-23T04:32:40,42.805,6.029,4330,1995,192.324,58.819,13.291
2019-07-23T04:35:40,42.805,6.029,4330,1995,192.285,58.809,13.292
2019-07-23T04:38:40,42.805,6.029,4330,1995,192.270,58.804,13.292
2019-07-23T04:41:40,42.805,6.029,4330,1995,192.200,58.783,13.293
2019-07-23T04:44:40,42.805,6.029,4330,1995,192.325,58.821,13.292
2019-07-23T04:47:40,42.805,6.029,4330,1995,192.325,58.822,13.293
2019-07-23T04:50:40,42.805,6.029,4330,1995,192.367,58.832,13.291
2019-07-23T04:53:40,42.805,6.029,4330,1995,192.362,58.831,13.291
2019-07-23T04:56:40,42.805,6.029,4330,1995,192.272,58.805,13.292
2019-07-23T04:59:40,42.805,6.029,4330,1995,192.260,58.801,13.292
2019-07-23T05:02:40,42.805,6.029,4330,1995,192.301,58.812,13.291
2019-07-23T05:05:40,42.805,6.029,4330,1995,192.372,58.835,13.292
2019-07-23T05:08:40,42.805,6.029,4330,1995,192.366,58.833,13.292
2019-07-23T05:11:40,42.805,6.029,4330,1995,192.341,58.823,13.290
2019-07-23T05:14:40,42.805,6.029,4330,1995,192.363,58.831,13.291
2019-07-23T05:17:40,42.805,6.029,4330,1995,192.294,58.809,13.291
2019-07-23T05:20:40,42.805,6.029,4330,1995,192.364,58.830,13.290
2019-07-23T05:23:40,42.805,6.029,4330,1995,192.269,58.803,13.291
2019-07-23T05:26:40,42.805,6.029,4330,1995,192.351,58.827,13.290
2019-07-23T05:29:40,42.805,6.029,4330,1995,192.362,58.831,13.291
2019-07-23T05:32:40,42.805,6.029,4330,1995,192.263,58.800,13.291
2019-07-23T05:35:40,42.805,6.029,4330,1995,192.342,58.823,13.290
2019-07-23T05:41:40,42.805,6.029,4330,1995,192.405,58.840,13.288
2019-07-23T05:44:40,42.805,6.029,4330,1995,192.381,58.837,13.291
2019-07-23T05:47:40,42.805,6.029,4330,1995,192.406,58.844,13.291
2019-07-23T05:50:40,42.805,6.029,4330,1995,192.395,58.842,13.292
2019-07-23T05:53:40,42.805,6.029,4330,1995,192.276,58.804,13.290
2019-07-23T05:56:40,42.805,6.029,4330,1995,192.235,58.793,13.292
2019-07-23T05:59:40,42.805,6.029,4330,1995,192.330,58.823,13.293
2019-07-23T06:02:40,42.805,6.029,4330,1995,192.349,58.827,13.291
2019-07-23T06:05:40,42.805,6.029,4330,1995,192.320,58.818,13.291
2019-07-23T06:08:40,42.805,6.029,4330,1995,192.352,58.829,13.292
2019-07-23T06:11:40,42.805,6.029,4330,1995,192.319,58.817,13.291
2019-07-23T06:14:40,42.805,6.029,4330,1995,192.314,58.815,13.290
2019-07-23T06:17:40,42.805,6.029,4330,1995,192.365,58.830,13.290
2019-07-23T06:20:40,42.805,6.029,4330,1995,192.300,58.810,13.290
2019-07-23T06:23:40,42.805,6.029,4330,1995,192.308,58.813,13.290
2019-07-23T06:26:40,42.805,6.029,4330,1995,192.302,58.812,13.291
2019-07-23T06:29:40,42.805,6.029,4330,1995,192.380,58.834,13.289
2019-07-23T06:32:40,42.805,6.029,4330,1995,192.367,58.831,13.290
2019-07-23T06:35:40,42.805,6.029,4330,1995,192.380,58.834,13.289
2019-07-23T06:38:40,42.805,6.029,4330,1995,192.416,58.846,13.290
2019-07-23T06:41:40,42.805,6.029,4330,1995,192.312,58.814,13.290
2019-07-23T06:44:40,42.805,6.029,4330,1995,192.446,58.854,13.289
2019-07-23T06:47:40,42.805,6.029,4330,1995,192.386,58.835,13.289
2019-07-23T06:50:40,42.805,6.029,4330,1995,192.444,58.855,13.290
2019-07-23T06:53:40,42.805,6.029,4330,1995,192.414,58.845,13.290
2019-07-23T06:56:40,42.805,6.029,4330,1995,192.440,58.853,13.290
2019-07-23T06:59:40,42.805,6.029,4330,1995,192.483,58.866,13.290
2019-07-23T07:02:40,42.805,6.029,4330,1995,192.416,58.845,13.289
2019-07-23T07:05:40,42.805,6.029,4330,1995,192.332,58.820,13.290
2019-07-23T07:08:40,42.805,6.029,4330,1995,192.380,58.836,13.291
2019-07-23T07:11:40,42.805,6.029,4330,1995,192.370,58.832,13.290
2019-07-23T07:14:40,42.805,6.029,4330,1995,192.394,58.840,13.291
2019-07-23T07:17:40,42.805,6.029,4330,1995,192.307,58.814,13.291
2019-07-23T07:20:40,42.805,6.029,4330,1995,192.324,58.817,13.289
2019-07-23T07:23:40,42.805,6.029,4330,1995,192.362,58.830,13.291
2019-07-23T07:26:40,42.805,6.029,4330,1995,192.392,58.840,13.291
2019-07-23T07:29:40,42.805,6.029,4330,1995,192.336,58.822,13.290
2019-07-23T07:32:40,42.805,6.029,4330,1995,192.352,58.829,13.292
2019-07-23T07:35:40,42.805,6.029,4330,1995,192.370,58.831,13.289
2019-07-23T07:38:40,42.805,6.029,4330,1995,192.336,58.822,13.290
2019-07-23T07:41:40,42.805,6.029,4330,1995,192.339,58.824,13.291
2019-07-23T07:44:40,42.805,6.029,4330,1995,192.351,58.827,13.291
2019-07-23T07:47:40,42.805,6.029,4330,1995,192.353,58.828,13.291
2019-07-23T07:50:40,42.805,6.029,4330,1995,192.311,58.814,13.290
2019-07-23T07:53:40,42.805,6.029,4330,1995,192.359,58.829,13.290
2019-07-23T07:56:40,42.805,6.029,4330,1995,192.347,58.825,13.290
2019-07-23T07:59:40,42.805,6.029,4330,1995,192.363,58.831,13.291
2019-07-23T08:02:40,42.805,6.029,4330,1995,192.295,58.810,13.291
2019-07-23T08:05:40,42.805,6.029,4330,1995,192.389,58.840,13.292
2019-07-23T08:08:40,42.805,6.029,4330,1995,192.315,58.817,13.292
2019-07-23T08:17:40,42.805,6.029,4330,1995,192.355,58.824,13.288
2019-07-23T08:20:40,42.805,6.029,4330,1995,192.424,58.849,13.291
2019-07-23T08:23:40,42.805,6.029,4330,1995,192.364,58.833,13.292
2019-07-23T08:26:40,42.805,6.029,4330,1995,192.409,58.844,13.290
2019-07-23T08:29:40,42.805,6.029,4330,1995,192.480,58.866,13.290
2019-07-23T08:32:40,42.805,6.029,4330,1995,192.478,58.864,13.289
2019-07-23T08:35:40,42.805,6.029,4330,1995,192.433,58.853,13.291
2019-07-23T08:38:40,42.805,6.029,4330,1995,192.496,58.870,13.290
2019-07-23T08:41:40,42.805,6.029,4330,1995,192.413,58.845,13.290
2019-07-23T08:44:40,42.805,6.029,4330,1995,192.413,58.845,13.290
2019-07-23T08:47:40,42.805,6.029,4330,1995,192.433,58.851,13.290
2019-07-23T08:50:40,42.805,6.029,4330,1995,192.432,58.852,13.291
2019-07-23T08:53:40,42.805,6.029,4330,1995,192.400,58.840,13.290
2019-07-23T08:56:40,42.805,6.029,4330,1995,192.474,58.865,13.291
2019-07-23T08:59:40,42.805,6.029,4330,1995,192.358,58.829,13.291
2019-07-23T09:02:40,42.805,6.029,4330,1995,192.581,58.897,13.291
2019-07-23T09:05:40,42.805,6.029,4330,1995,192.590,58.899,13.290
2019-07-23T09:08:40,42.805,6.029,4330,1995,192.599,58.902,13.290
2019-07-23T09:11:40,42.805,6.029,4330,1995,192.640,58.915,13.290
2019-07-23T09:14:40,42.805,6.029,4330,1995,192.558,58.890,13.290
2019-07-23T09:17:40,42.805,6.029,4330,1995,192.558,58.890,13.290
2019-07-23T09:20:40,42.805,6.029,4330,1995,192.675,58.925,13.290
2019-07-23T09:23:40,42.805,6.029,4330,1995,192.596,58.902,13.290
2019-07-23T09:26:40,42.805,6.029,4330,1995,192.638,58.915,13.291
2019-07-23T09:29:40,42.805,6.029,4330,1995,192.695,58.930,13.289
2019-07-23T09:32:40,42.805,6.029,4330,1995,192.705,58.935,13.291
2019-07-23T09:35:40,42.805,6.029,4330,1995,192.828,58.971,13.289
2019-07-23T09:38:40,42.805,6.029,4330,1995,192.832,58.974,13.290
2019-07-23T09:41:40,42.805,6.029,4330,1995,192.846,58.976,13.289
2019-07-23T09:44:40,42.805,6.029,4330,1995,192.910,58.998,13.291
2019-07-23T09:47:40,42.805,6.029,4330,1995,192.914,58.997,13.289
2019-07-23T09:50:40,42.805,6.029,4330,1995,192.917,58.999,13.289
2019-07-23T09:53:40,42.805,6.029,4330,1995,192.927,59.001,13.289
2019-07-23T09:56:40,42.805,6.029,4330,1995,192.954,59.009,13.288
2019-07-23T09:59:40,42.805,6.029,4330,1995,192.995,59.021,13.289
2019-07-23T10:02:40,42.805,6.029,4330,1995,193.013,59.028,13.289
2019-07-23T10:05:40,42.805,6.029,4330,1995,193.063,59.042,13.289
2019-07-23T10:08:40,42.805,6.029,4330,1995,193.077,59.048,13.289
2019-07-23T10:11:40,42.805,6.029,4330,1995,193.097,59.054,13.289
2019-07-23T10:14:40,42.805,6.029,4330,1995,193.063,59.042,13.289
2019-07-23T10:17:40,42.805,6.029,4330,1995,193.018,59.029,13.289
2019-07-23T10:20:40,42.805,6.029,4330,1995,193.127,59.063,13.289
2019-07-23T10:23:40,42.805,6.029,4330,1995,193.148,59.070,13.290
2019-07-23T10:26:40,42.805,6.029,4330,1995,193.071,59.045,13.289
2019-07-23T10:29:40,42.805,6.029,4330,1995,193.127,59.063,13.289
2019-07-23T10:32:40,42.805,6.029,4330,1995,193.130,59.063,13.289
2019-07-23T10:35:40,42.805,6.029,4330,1995,193.201,59.085,13.289
2019-07-23T10:38:40,42.805,6.029,4330,1995,193.079,59.048,13.290
2019-07-23T10:41:40,42.805,6.029,4330,1995,193.103,59.056,13.290
2019-07-23T10:44:40,42.805,6.029,4330,1995,193.141,59.067,13.289
2019-07-23T10:50:40,42.805,6.029,4330,1995,193.139,59.067,13.290
2019-07-23T10:53:40,42.805,6.029,4330,1995,193.169,59.074,13.288
2019-07-23T10:56:40,42.805,6.029,4330,1995,193.185,59.080,13.289
2019-07-23T10:59:40,42.805,6.029,4330,1995,193.148,59.070,13.290
2019-07-23T11:02:40,42.805,6.029,4330,1995,193.112,59.059,13.290
2019-07-23T11:05:40,42.805,6.029,4330,1995,193.145,59.067,13.289
2019-07-23T11:08:40,42.805,6.029,4330,1995,193.080,59.049,13.290
2019-07-23T11:11:40,42.805,6.029,4330,1995,193.186,59.081,13.289
2019-07-23T11:14:40,42.805,6.029,4330,1995,193.182,59.079,13.289
2019-07-23T11:17:40,42.805,6.029,4330,1995,193.140,59.067,13.289
2019-07-23T11:20:40,42.805,6.029,4330,1995,193.111,59.058,13.289
2019-07-23T11:23:40,42.805,6.029,4330,1995,193.192,59.082,13.289
2019-07-23T11:26:40,42.805,6.029,4330,1995,193.075,59.047,13.289
2019-07-23T11:29:40,42.805,6.029,4330,1995,193.079,59.048,13.289
2019-07-23T11:32:40,42.805,6.029,4330,1995,193.001,59.025,13.290
2019-07-23T11:35:40,42.805,6.029,4330,1995,193.018,59.031,13.291
2019-07-23T11:38:40,42.805,6.029,4330,1995,192.998,59.024,13.290
2019-07-23T11:41:40,42.805,6.029,4330,1995,192.974,59.017,13.290
2019-07-23T11:44:40,42.805,6.029,4330,1995,192.866,58.985,13.291
2019-07-23T11:47:40,42.805,6.029,4330,1995,192.874,58.986,13.290
2019-07-23T11:50:40,42.805,6.029,4330,1995,192.935,59.004,13.290
2019-07-23T11:53:40,42.805,6.029,4330,1995,192.862,58.983,13.290
2019-07-23T11:56:40,42.805,6.029,4330,1995,192.915,58.998,13.290
2019-07-23T11:59:40,42.805,6.029,4330,1995,192.844,58.977,13.290
2019-07-23T12:02:40,42.805,6.029,4330,1995,192.827,58.974,13.292
2019-07-23T12:05:40,42.805,6.029,4330,1995,192.823,58.972,13.291
2019-07-23T12:08:40,42.805,6.029,4330,1995,192.825,58.973,13.292
2019-07-23T12:11:40,42.805,6.029,4330,1995,192.784,58.961,13.292
2019-07-23T12:14:40,42.805,6.029,4330,1995,192.786,58.960,13.291
2019-07-23T12:17:40,42.805,6.029,4330,1995,192.784,58.959,13.291
2019-07-23T12:20:40,42.805,6.029,4330,1995,192.718,58.940,13.291
2019-07-23T12:23:40,42.805,6.029,4330,1995,192.702,58.935,13.291
2019-07-23T12:26:40,42.805,6.029,4330,1995,192.687,58.931,13.292
2019-07-23T12:29:40,42.805,6.029,4330,1995,192.688,58.932,13.292
2019-07-23T12:32:40,42.805,6.029,4330,1995,192.654,58.920,13.291
2019-07-23T12:35:40,42.805,6.029,4330,1995,192.632,58.914,13.291
2019-07-23T12:38:40,42.805,6.029,4330,1995,192.647,58.918,13.291
2019-07-23T12:41:40,42.805,6.029,4330,1995,192.603,58.905,13.291
2019-07-23T12:44:40,42.805,6.029,4330,1995,192.630,58.913,13.291
2019-07-23T12:47:40,42.805,6.029,4330,1995,192.552,58.888,13.291
2019-07-23T12:50:40,42.805,6.029,4330,1995,192.518,58.878,13.290
2019-07-23T12:53:40,42.805,6.029,4330,1995,192.589,58.899,13.290
2019-07-23T12:56:40,42.805,6.029,4330,1995,192.529,58.881,13.290
2019-07-23T12:59:40,42.805,6.029,4330,1995,192.525,58.881,13.291
2019-07-23T13:02:40,42.805,6.029,4330,1995,192.436,58.852,13.290
2019-07-23T13:05:40,42.805,6.029,4330,1995,192.490,58.870,13.291
2019-07-23T13:08:40,42.805,6.029,4330,1995,192.483,58.868,13.291
2019-07-23T13:11:40,42.805,6.029,4330,1995,192.491,58.871,13.292
2019-07-23T13:14:40,42.805,6.029,4330,1995,192.499,58.871,13.290
2019-07-23T13:17:40,42.805,6.029,4330,1995,192.474,58.863,13.289
2019-07-23T13:20:40,42.805,6.029,4330,1995,192.466,58.861,13.289
2019-07-23T13:26:40,42.805,6.029,4330,1995,192.455,58.855,13.288
2019-07-23T13:29:40,42.805,6.029,4330,1995,192.412,58.845,13.290
2019-07-23T13:32:40,42.805,6.029,4330,1995,192.425,58.849,13.290
2019-07-23T13:35:40,42.805,6.029,4330,1995,192.472,58.866,13.292
2019-07-23T13:38:40,42.805,6.029,4330,1995,192.412,58.847,13.292
2019-07-23T13:41:40,42.805,6.029,4330,1995,192.357,58.828,13.290
2019-07-23T13:44:40,42.805,6.029,4330,1995,192.447,58.857,13.291
2019-07-23T13:47:40,42.805,6.029,4330,1995,192.470,58.865,13.291
2019-07-23T13:50:40,42.805,6.029,4330,1995,192.378,58.836,13.291
2019-07-23T13:53:40,42.805,6.029,4330,1995,192.431,58.853,13.292
2019-07-23T13:56:40,42.805,6.029,4330,1995,192.392,58.840,13.291
2019-07-23T13:59:40,42.805,6.029,4330,1995,192.330,58.821,13.291
2019-07-23T14:02:40,42.805,6.029,4330,1995,192.281,58.805,13.291
2019-07-23T14:05:40,42.805,6.029,4330,1995,192.330,58.820,13.290
2019-07-23T14:08:40,42.805,6.029,4330,1995,192.331,58.821,13.291
2019-07-23T14:11:40,42.805,6.029,4330,1995,192.309,58.815,13.291
2019-07-23T14:14:40,42.805,6.029,4330,1995,192.260,58.799,13.290
2019-07-23T14:17:40,42.805,6.029,4330,1995,192.293,58.808,13.290
2019-07-23T14:20:40,42.805,6.029,4330,1995,192.246,58.794,13.290
2019-07-23T14:23:40,42.805,6.029,4330,1995,192.245,58.794,13.290
2019-07-23T14:26:40,42.805,6.029,4330,1995,192.305,58.812,13.290
2019-07-23T14:29:40,42.805,6.029,4330,1995,192.282,58.804,13.289
2019-07-23T14:32:40,42.805,6.029,4330,1995,192.240,58.792,13.290
2019-07-23T14:35:40,42.805,6.029,4330,1995,192.251,58.795,13.289
2019-07-23T14:38:40,42.805,6.029,4330,1995,192.261,58.799,13.290
2019-07-23T14:41:40,42.805,6.029,4330,1995,192.227,58.788,13.290
2019-07-23T14:44:40,42.805,6.029,4330,1995,192.272,58.801,13.289
2019-07-23T14:47:40,42.805,6.029,4330,1995,192.218,58.786,13.291
2019-07-23T14:50:40,42.805,6.029,4330,1995,192.213,58.784,13.290
2019-07-23T14:53:40,42.805,6.029,4330,1995,192.144,58.764,13.291
2019-07-23T14:56:40,42.805,6.029,4330,1995,192.189,58.778,13.291
2019-07-23T14:59:40,42.805,6.029,4330,1995,192.137,58.762,13.291
2019-07-23T15:02:40,42.805,6.029,4330,1995,192.186,58.777,13.291
2019-07-23T15:05:40,42.805,6.029,4330,1995,192.186,58.776,13.291
2019-07-23T15:08:40,42.805,6.029,4330,1995,192.200,58.783,13.292
2019-07-23T15:11:40,42.805,6.029,4330,1995,192.165,58.771,13.291
2019-07-23T15:14:40,42.805,6.029,4330,1995,192.130,58.760,13.291
2019-07-23T15:17:40,42.805,6.029,4330,1995,192.132,58.760,13.290
2019-07-23T15:20:40,42.805,6.029,4330,1995,192.095,58.749,13.291
2019-07-23T15:23:40,42.805,6.029,4330,1995,192.075,58.744,13.291
2019-07-23T15:26:40,42.805,6.029,4330,1995,192.085,58.746,13.291
2019-07-23T15:29:40,42.805,6.029,4330,1995,192.130,58.760,13.291
2019-07-23T15:32:40,42.805,6.029,4330,1995,192.046,58.736,13.292
2019-07-23T15:35:40,42.805,6.029,4330,1995,192.065,58.741,13.291
2019-07-23T15:38:40,42.805,6.029,4330,1995,192.065,58.743,13.293
2019-07-23T15:41:40,42.805,6.029,4330,1995,191.985,58.717,13.292
2019-07-23T15:44:40,42.805,6.029,4330,1995,192.075,58.745,13.292
2019-07-23T15:47:40,42.805,6.029,4330,1995,191.993,58.720,13.292
2019-07-23T15:50:40,42.805,6.029,4330,1995,191.980,58.715,13.292
2019-07-23T15:53:40,42.805,6.029,4330,1995,192.041,58.733,13.291
2019-07-23T16:02:40,42.805,6.029,4330,1995,192.050,58.732,13.288
2019-07-23T16:05:40,42.805,6.029,4330,1995,192.013,58.725,13.291
2019-07-23T16:08:40,42.805,6.029,4330,1995,191.994,58.719,13.291
2019-07-23T16:11:40,42.805,6.029,4330,1995,192.040,58.732,13.291
2019-07-23T16:14:40,42.805,6.029,4330,1995,191.974,58.714,13.292
2019-07-23T16:17:40,42.805,6.029,4330,1995,192.052,58.736,13.291
2019-07-23T16:20:40,42.805,6.029,4330,1995,192.006,58.725,13.293
2019-07-23T16:23:40,42.805,6.029,4330,1995,192.023,58.727,13.291
2019-07-23T16:26:40,42.805,6.029,4330,1995,191.963,58.710,13.292
2019-07-23T16:29:40,42.805,6.029,4330,1995,191.944,58.704,13.292
2019-07-23T16:32:40,42.805,6.029,4330,1995,191.959,58.709,13.292
2019-07-23T16:35:40,42.805,6.029,4330,1995,191.989,58.718,13.292
2019-07-23T16:38:40,42.805,6.029,4330,1995,191.953,58.709,13.294
2019-07-23T16:41:40,42.805,6.029,4330,1995,192.004,58.722,13.291
2019-07-23T16:44:40,42.805,6.029,4330,1995,192.025,58.728,13.291
2019-07-23T16:47:40,42.805,6.029,4330,1995,192.012,58.726,13.293
2019-07-23T16:50:40,42.805,6.029,4330,1995,191.899,58.690,13.291
2019-07-23T16:53:40,42.805,6.029,4330,1995,191.930,58.701,13.292
2019-07-23T16:56:40,42.805,6.029,4330,1995,191.948,58.706,13.293
2019-07-23T16:59:40,42.805,6.029,4330,1995,191.905,58.691,13.291
2019-07-23T17:02:40,42.805,6.029,4330,1995,191.878,58.685,13.293
2019-07-23T17:05:40,42.805,6.029,4330,1995,191.911,58.694,13.292
2019-07-23T17:08:40,42.805,6.029,4330,1995,191.847,58.674,13.291
2019-07-23T17:11:40,42.805,6.029,4330,1995,191.944,58.703,13.291
2019-07-23T17:14:40,42.805,6.029,4330,1995,192.006,58.721,13.290
2019-07-23T17:17:40,42.805,6.029,4330,1995,191.994,58.719,13.291
2019-07-23T17:20:40,42.805,6.029,4330,1995,191.968,58.710,13.291
2019-07-23T17:23:40,42.805,6.029,4330,1995,192.014,58.725,13.292
2019-07-23T17:26:40,42.805,6.029,4330,1995,191.953,58.708,13.292
2019-07-23T17:29:40,42.805,6.029,4330,1995,192.001,58.720,13.290
2019-07-23T17:32:40,42.805,6.029,4330,1995,191.966,58.709,13.290
2019-07-23T17:35:40,42.805,6.029,4330,1995,191.989,58.716,13.291
2019-07-23T17:38:40,42.805,6.029,4330,1995,191.952,58.704,13.290
2019-07-23T17:41:40,42.805,6.029,4330,1995,191.951,58.704,13.291
2019-07-23T17:44:40,42.805,6.029,4330,1995,191.924,58.696,13.290
2019-07-23T17:47:40,42.805,6.029,4330,1995,191.976,58.713,13.291
2019-07-23T17:50:40,42.805,6.029,4330,1995,191.945,58.701,13.289
2019-07-23T17:53:40,42.805,6.029,4330,1995,191.974,58.711,13.290
2019-07-23T17:56:40,42.805,6.029,4330,1995,191.916,58.693,13.290
2019-07-23T17:59:40,42.805,6.029,4330,1995,191.951,58.704,13.290
2019-07-23T18:02:40,42.805,6.029,4330,1995,192.032,58.729,13.291
2019-07-23T18:05:40,42.805,6.029,4330,1995,191.954,58.704,13.289
2019-07-23T18:08:40,42.805,6.029,4330,1995,191.988,58.715,13.290
2019-07-23T18:11:40,42.805,6.029,4330,1995,192.025,58.725,13.289
2019-07-23T18:14:40,42.805,6.029,4330,1995,192.056,58.737,13.290
2019-07-23T18:17:40,42.805,6.029,4330,1995,192.048,58.734,13.291
2019-07-23T18:20:40,42.805,6.029,4330,1995,192.008,58.721,13.290
2019-07-23T18:23:40,42.805,6.029,4330,1995,191.993,58.716,13.290
2019-07-23T18:26:40,42.805,6.029,4330,1995,192.003,58.720,13.290
2019-07-23T18:29:40,42.805,6.029,4330,1995,192.077,58.743,13.290
2019-07-23T18:35:40,42.805,6.029,4330,1995,192.019,58.723,13.289
2019-07-23T18:38:40,42.805,6.029,4330,1995,191.973,58.708,13.288
2019-07-23T18:41:40,42.805,6.029,4330,1995,192.063,58.737,13.289